SCP
0 0 0 0 0 -0 -0 -0 -0 -0 -0 -0 -0 -0 -0 -0 -0 -0 -0 -0 -0 -0 -0 -0 -0 -0 -0 -0 -0 -0 -0 -0 -0 -0 -0 -0 -0 -0 0 0 0 0 0
0 0 0 -0 0 0 0 -0 -0 -0 -0 -0 -0 -0 -0 -0 -0 -0 -0 -0 -0 -0 -0 -0 -0 -0 -0 -0 -0 -0 -0 -0 -0 -0 -0 -0 -0 0 0 0 0 0 -0
0 0 -0 -0 -0 0 0 -0 -0 0 -0 -0 -0 -0 -0 -0 -0 -0 -0 -0 -0 -0 -0 -0 -0 -0 -0 0 -0 -0 -0 -0 -0 -0 -0 -0 0 0 0 0 0 0 -0
0 0 0 -0 -0 -0 -0 0 -0 -0 -0 -0 -0 -0 -0 -0 -0 -0 -0 -0 -0 -0 -0 -0 -0 -0 -0 -0 -0 -0 -0 -0 -0 0 -0 0 0 0 0 0 0 0 0
0 0 0 0 -0 -0 -0 -0 -0 -0 -0 -0 -0 -0 -0 -0 -0 -0 -0 -0 -0 -0 -0 -0 -0 0 -0 -0 -0 -0 -0 -0 0 0 -0 0 0 0 0 0 0 0 0
0 0 0 0 0 0 -0 -0 -0 -0 -0 -0 -0 -0 -0 -0 -0 -0 -0 -0 -0 -0 -0 -0 0 0 0 -0 0 0 0 0 0 0 0 0 0 0 0 0 0 0 0
0 0 0 0 0 0 0 -0 -0 -0 -0 -0 0 -0 -0 -0 -0 -0 -0 -0 -0 -0 0 0 0 0 0 0 0 0 0 0 0 0 0 0 0 0 0 0 0 0 0
0 0 0 0 0 0 0 0 0 -0 -0 -0 -0 0 -0 -0 -0 -0 -0 0 0 0 0 0 0 0 0 0 0 0 0 0 0 0 0 0 0 0 0 0 0 0 0
0 0 0 0 0 0 0 0 0 0 0 -0 0 -0 0 0 0 0 0 0 0 0 0 0 0 0 0 0 0 0 0 0 0 0 0 0 0 0 0 0 0 0 0
0 0 0 0 0 0 0 0 0 0 0 0 0 0 0 0 0 0 0 0 0 0 0 0 0 0 0 0 0 0 0 0 0 0 0 0 0 0 0 0 0 0 0
0 0 0 0 0 0 0 0 0 0 0 0 0 0 0 0 0 0 0 0 0 0 0 0 0 0 0 0 0 0 0 0 0 0 0 0 0 0 0 0 0 0 0
-0 -0 0 0 0 0 0 0 0 0 0 0 0 0 0 0 0 0 0 0 0 0 0 0 0 0 0 0 0 0 0 0 0 0 0 0 0 0 0 0 0 0 0
0 0 0 0 0 0 0 0 0 0 0 0 0 0 0 0 0 0 0 0 0 0 0 0 0 0 0 0 0 0 0 0 0 0 0 0 0 0 -0 0 0 0 0
0 0 0 0 0 0 0 0 0 0 0 0 0 0 0 0 0 0 0 0 0 0 0 0 0 0 0 0 0 0 0 0 0 0 0 0 0 0 0 0 0 0 0
0 0 0 0 0 0 0 0 0 0 0 0 0 0 0 0 0 0 0 0 0 0 0 0 0 0 0 0 0 0 0 0 0 0 0 0 0 0 0 0 0 0 0
0 0 0 0 0 0 0 0 0 0 0 0 0 0 0 0 0 0 0 0 0 0 0 0 0 0 0 0 0 0 0 0 0 0 0 0 0 0 0 0 0 0 0
0 0 0 0 0 0 0 0 0 0 0 0 0 0 0 0 0 0 0 0 0 0 0 0 0 0 0 0 0 0 0 0 0 0 0 0 0 0 0 0 0 0 0
0 0 0 0 0 0 0 0 0 0 0 0 0 0 0 0 0 0 0 0 0 0 0 0 0 0 0 0 0 0 0 0 0 0 0 0 0 0 0 0 0 0 0
0 0 0 0 0 0 0 0 0 0 0 0 0 0 0 0 0 0 0 0 0 0 0 0 0 0 0 0 0 0 0 0 0 0 0 0 0 0 0 0 0 0 0
0 0 0 0 0 0 0 0 0 0 0 0 0 0 0 0 0 0 0 0 0 0 0 0 0 0 0 0 0 0 0 0 0 0 0 0 0 0 0 0 0 0 0
0 0 0 0 0 0 0 0 0 0 0 0 0 0 0 0 0 0 0 0 0 0 0 0 0 0 0 0 0 0 0 0 0 0 0 0 0 0 0 0 0 0 0
0 0 0 0 0 0 0 0 0 0 0 0 0 0 0 0 0 0 0 0 0 0 0 0 0 0 0 0 0 0 0 0 0 0 0 0 0 0 0 0 0 0 0
0 0 0 0 0 0 0 0 0 0 0 0 0 0 0 0 0 0 0 0 0 0 0 0 0 0 0 0 0 0 0 0 0 0 0 0 0 0 0 0 0 0 0
0 0 0 0 0 0 0 0 0 0 0 0 0 0 0 0 0 0 0 0 0 0 0 0 0 0 0 0 0 0 0 0 0 0 0 0 0 0 0 0 0 0 0
0 0 0 0 0 0 0 0 0 0 0 0 0 0 0 0 0 0 0 0 0 0 0 0 0 0 0 0 0 0 0 0 0 0 0 0 0 0 0 0 0 0 0
0 0 0 0 0 0 0 0 0 0 0 0 0 0 0 0 0 0 0 0 0 0 0 0 0 0 0 0 0 0 0 0 0 0 0 0 0 0 0 0 0 0 0
Wind_Speed_500mb
23 24 22 23 22 13 5 1 4 3 6 17 26 28 24 19 12 6 14 22 22 22 22 23 19 24 27 26 25 24 18 15 12 14 14 14 5 6 10 11 12 18 25
22 24 24 20 20 12 5 4 3 5 11 19 20 24 21 17 13 10 15 22 18 20 19 20 29 28 28 21 17 16 12 10 5 8 11 10 7 9 8 8 18 23 25
23 23 26 23 17 9 7 5 4 9 14 19 18 10 14 17 14 13 23 22 16 22 22 26 29 28 24 21 13 8 5 3 5 8 11 13 10 5 7 17 19 22 23
23 22 23 19 11 8 8 7 8 13 16 16 16 16 10 12 12 20 15 17 19 14 20 22 18 27 27 20 12 6 2 5 7 11 12 14 9 2 8 16 18 21 21
24 21 18 14 10 8 7 8 10 14 20 20 18 21 15 9 7 16 15 16 16 16 15 17 13 20 10 21 12 5 3 4 10 14 17 17 7 7 9 11 16 19 20
22 21 17 13 10 8 7 7 10 15 26 26 19 15 13 11 4 11 14 16 10 17 10 11 10 13 18 26 13 9 8 8 13 17 22 16 5 9 6 9 15 16 18
20 19 16 13 11 8 8 7 5 9 26 25 22 16 14 14 10 7 8 15 14 9 6 9 8 11 16 20 13 9 6 12 13 16 20 12 8 9 8 10 11 12 14
15 15 16 14 12 10 8 8 7 6 13 17 20 18 19 19 15 14 13 15 12 10 6 7 4 5 9 14 14 10 11 11 9 13 16 13 16 4 6 6 7 8 12
15 15 15 16 16 13 12 10 9 8 11 16 20 22 19 19 17 13 19 20 13 12 8 6 4 5 7 10 13 14 13 11 10 9 13 12 13 9 5 5 5 6 7
17 16 17 18 20 18 15 15 13 14 11 16 20 22 26 25 23 19 15 19 15 15 13 12 10 9 9 11 12 14 14 12 12 10 12 13 16 2 8 6 5 4 6
21 21 22 24 22 20 21 21 19 17 19 21 23 23 28 25 22 23 23 22 17 19 21 19 17 15 14 14 14 15 15 15 15 13 12 12 13 6 10 8 7 7 10
20 21 20 20 26 27 26 27 26 25 24 24 24 25 27 31 29 27 22 24 24 26 24 25 23 22 20 19 18 18 18 18 18 17 15 14 13 8 13 17 15 11 15
23 25 24 21 22 27 30 29 31 30 30 31 29 26 27 32 35 35 31 28 30 31 30 29 26 25 26 25 24 23 22 21 22 22 19 19 16 13 9 19 24 23 19
32 31 30 30 29 29 30 35 34 35 35 36 33 32 31 31 34 36 36 33 34 34 36 30 32 30 31 31 31 30 29 27 27 28 26 25 22 18 16 14 22 24 23
39 40 39 38 39 37 38 38 42 41 40 38 36 37 38 36 34 35 37 39 38 37 38 36 34 35 36 36 36 38 37 35 32 32 35 33 29 25 23 21 17 25 27
44 45 47 48 47 45 45 46 44 44 44 44 42 40 39 39 39 38 38 41 43 41 39 40 39 40 42 43 44 43 43 43 39 37 37 35 34 32 29 28 26 24 29
53 53 51 51 54 54 52 51 53 50 47 47 48 46 45 43 41 40 41 41 41 44 45 43 45 46 48 48 53 49 48 47 47 45 43 42 38 38 37 35 34 32 29
60 60 56 54 55 57 58 56 56 56 54 50 48 51 51 50 48 46 46 44 39 41 46 50 51 52 53 53 55 54 54 54 52 51 52 51 48 45 43 44 42 39 39
60 61 55 56 59 59 58 59 61 60 60 57 54 53 52 53 53 53 53 48 44 45 49 53 56 56 59 58 57 58 57 59 57 58 59 59 57 56 54 50 50 49 47
69 71 66 57 58 62 59 59 63 65 65 63 61 59 57 53 53 57 56 54 49 50 54 57 60 61 61 62 62 64 64 65 65 67 67 67 64 64 62 59 57 58 56
56 60 77 73 60 58 65 65 64 64 63 65 63 62 59 57 57 58 59 60 56 52 55 56 58 64 67 64 67 72 72 73 72 73 70 71 70 69 67 66 65 63 61
71 61 57 70 72 67 64 68 67 67 66 63 60 59 60 62 59 62 61 63 64 63 66 69 68 70 71 66 70 68 62 62 74 69 58 56 58 60 64 66 69 70 70
56 50 49 55 62 64 56 50 53 58 62 62 64 60 59 56 53 53 54 56 64 72 72 70 73 75 76 73 68 69 31 33 45 55 51 52 53 52 49 46 46 50 56
50 46 43 49 54 54 45 44 44 47 52 50 57 57 56 56 54 54 52 51 51 55 63 70 72 72 71 75 77 79 81 77 53 54 61 54 53 57 54 52 50 52 53
24 25 27 32 36 40 42 42 41 40 40 40 43 47 48 49 50 50 51 51 53 55 56 57 61 66 68 70 74 82 86 85 82 80 66 70 79 81 79 75 72 71 69
31 26 17 5 7 12 16 21 21 23 26 31 32 35 37 40 42 45 48 48 51 50 53 53 56 60 65 68 68 71 81 73 70 76 82 92 96 96 92 84 77 73 71
Wind_Direction_500mb
174 166 164 173 173 174 171 16 20 105 143 131 155 154 166 164 161 115 116 130 120 113 112 116 114 122 108 111 112 108 104 108 84 51 55 56 64 356 339 360 40 63 75
181 169 163 174 184 188 216 277 299 180 157 136 145 163 176 179 184 158 143 121 121 114 112 113 117 116 110 100 116 125 117 113 73 21 25 21 354 335 348 57 68 74 80
178 174 167 176 191 226 242 251 226 192 178 164 164 149 164 183 180 150 137 130 123 110 101 109 118 124 111 96 109 116 120 100 358 338 350 357 3 8 88 83 80 81 84
176 181 178 183 206 239 259 250 218 192 193 152 127 142 153 158 152 148 147 129 130 124 126 134 123 137 125 108 115 113 71 335 331 343 347 349 352 319 99 96 93 101 91
174 180 188 204 222 245 255 254 227 195 174 147 171 169 173 164 130 155 147 143 135 125 126 143 134 137 126 117 134 153 219 293 317 325 341 346 356 70 106 115 107 99 101
178 183 197 214 227 247 259 254 247 187 175 154 183 148 169 219 186 156 164 162 158 142 136 146 142 114 125 137 152 204 235 288 319 340 354 357 100 91 94 88 117 104 111
187 195 204 216 231 246 258 260 265 194 190 195 169 170 182 211 205 187 198 164 169 179 129 124 131 141 144 156 159 205 271 310 331 349 353 10 17 106 99 112 114 108 118
202 208 215 228 239 251 251 266 263 215 197 191 181 172 182 206 231 225 197 188 189 191 177 152 158 161 167 182 202 242 276 308 342 1 3 7 357 114 125 159 143 133 137
204 216 232 238 242 256 260 261 258 243 212 188 201 180 206 223 226 212 200 219 213 206 216 205 216 229 223 218 226 247 264 296 332 343 356 360 360 341 240 212 174 175 161
214 227 232 240 248 250 256 268 261 250 240 214 224 207 192 210 220 230 221 220 215 222 231 241 242 245 253 252 249 254 265 283 299 317 338 340 352 286 246 217 256 240 231
229 235 236 240 244 251 255 254 257 256 250 246 244 239 243 235 234 233 236 248 231 244 230 230 246 256 259 263 263 260 264 275 286 292 307 320 339 321 267 275 283 260 257
244 248 250 250 247 253 257 251 254 255 255 255 255 253 251 250 253 254 252 243 238 235 248 232 235 248 259 265 269 267 269 275 276 282 287 296 309 318 264 279 294 291 272
273 264 261 260 260 260 258 254 253 257 260 257 257 260 260 256 259 256 254 252 248 245 244 246 246 252 261 264 267 267 269 276 278 276 280 282 291 297 263 263 276 288 278
277 276 272 268 268 267 264 251 252 255 259 259 260 261 262 262 263 266 264 261 257 254 259 264 254 252 257 263 267 268 271 274 279 276 275 276 277 282 279 258 253 271 281
279 281 277 271 270 269 264 261 256 256 258 261 261 260 261 263 265 266 269 269 266 263 262 261 261 256 257 261 265 268 268 271 273 273 272 272 270 273 273 270 251 254 263
290 284 281 274 270 267 266 263 262 261 261 258 259 261 263 264 264 265 267 270 270 268 268 265 264 262 262 262 262 265 269 270 272 273 275 269 264 266 267 265 261 248 250
297 286 276 274 272 268 268 266 264 264 263 261 259 260 259 262 266 269 270 270 272 272 269 266 263 266 267 267 268 266 268 271 274 275 273 271 265 261 264 265 262 258 247
294 285 277 272 269 268 268 268 267 266 266 265 264 259 258 260 263 266 269 271 275 274 272 270 270 270 270 272 273 273 272 271 271 272 272 270 268 266 263 262 262 259 256
285 287 275 271 269 269 268 268 267 267 266 268 265 264 261 259 260 264 268 272 275 274 272 272 271 271 274 275 277 277 275 273 273 271 268 268 268 268 265 261 260 261 259
280 277 273 274 270 267 266 265 264 264 265 264 265 265 265 264 266 263 264 269 271 277 275 272 273 275 276 279 280 278 277 276 274 271 271 270 269 268 267 264 260 258 258
289 279 262 264 269 276 263 260 259 262 266 268 270 272 272 272 269 267 268 267 263 265 274 274 273 273 274 276 278 280 281 279 276 275 275 274 271 269 268 267 263 260 258
293 288 270 259 263 269 271 260 261 264 266 271 275 277 276 273 272 272 272 272 271 270 271 271 270 271 272 275 274 276 279 283 285 286 283 276 274 270 268 265 264 262 262
292 284 263 257 258 261 269 268 266 264 265 268 272 275 278 283 286 285 283 281 278 275 273 273 273 272 273 274 274 264 254 268 287 287 285 280 276 272 272 270 267 265 264
290 276 271 268 263 256 257 261 265 269 269 274 275 276 276 278 283 286 288 287 285 284 283 281 280 278 279 275 275 270 270 267 264 281 282 278 274 273 272 268 265 265 268
320 302 283 265 257 250 255 259 259 260 269 278 280 284 285 286 288 288 287 288 285 283 283 282 283 284 283 281 278 277 277 273 267 265 275 276 279 277 278 277 277 274 272
69 70 66 69 213 234 246 253 258 267 275 278 279 284 287 289 294 295 295 293 293 290 288 289 287 283 282 281 280 278 275 270 268 266 265 273 276 280 281 279 276 274 275
Wind_Speed_850mb
23 24 22 23 22 13 5 1 4 3 6 17 26 28 24 19 12 6 14 22 22 22 22 23 19 24 27 26 25 24 18 15 12 14 14 14 5 6 10 11 12 18 25
22 24 24 20 20 12 5 4 3 5 11 19 20 24 21 17 13 10 15 22 18 20 19 20 29 28 28 21 17 16 12 10 5 8 11 10 7 9 8 8 18 23 25
23 23 26 23 17 9 7 5 4 9 14 19 18 10 14 17 14 13 23 22 16 22 22 26 29 28 24 21 13 8 5 3 5 8 11 13 10 5 7 17 19 22 23
23 22 23 19 11 8 8 7 8 13 16 16 16 16 10 12 12 20 15 17 19 14 20 22 18 27 27 20 12 6 2 5 7 11 12 14 9 2 8 16 18 21 21
24 21 18 14 10 8 7 8 10 14 20 20 18 21 15 9 7 16 15 16 16 16 15 17 13 20 10 21 12 5 3 4 10 14 17 17 7 7 9 11 16 19 20
22 21 17 13 10 8 7 7 10 15 26 26 19 15 13 11 4 11 14 16 10 17 10 11 10 13 18 26 13 9 8 8 13 17 22 16 5 9 6 9 15 16 18
20 19 16 13 11 8 8 7 5 9 26 25 22 16 14 14 10 7 8 15 14 9 6 9 8 11 16 20 13 9 6 12 13 16 20 12 8 9 8 10 11 12 14
15 15 16 14 12 10 8 8 7 6 13 17 20 18 19 19 15 14 13 15 12 10 6 7 4 5 9 14 14 10 11 11 9 13 16 13 16 4 6 6 7 8 12
15 15 15 16 16 13 12 10 9 8 11 16 20 22 19 19 17 13 19 20 13 12 8 6 4 5 7 10 13 14 13 11 10 9 13 12 13 9 5 5 5 6 7
17 16 17 18 20 18 15 15 13 14 11 16 20 22 26 25 23 19 15 19 15 15 13 12 10 9 9 11 12 14 14 12 12 10 12 13 16 2 8 6 5 4 6
21 21 22 24 22 20 21 21 19 17 19 21 23 23 28 25 22 23 23 22 17 19 21 19 17 15 14 14 14 15 15 15 15 13 12 12 13 6 10 8 7 7 10
20 21 20 20 26 27 26 27 26 25 24 24 24 25 27 31 29 27 22 24 24 26 24 25 23 22 20 19 18 18 18 18 18 17 15 14 13 8 13 17 15 11 15
23 25 24 21 22 27 30 29 31 30 30 31 29 26 27 32 35 35 31 28 30 31 30 29 26 25 26 25 24 23 22 21 22 22 19 19 16 13 9 19 24 23 19
32 31 30 30 29 29 30 35 34 35 35 36 33 32 31 31 34 36 36 33 34 34 36 30 32 30 31 31 31 30 29 27 27 28 26 25 22 18 16 14 22 24 23
39 40 39 38 39 37 38 38 42 41 40 38 36 37 38 36 34 35 37 39 38 37 38 36 34 35 36 36 36 38 37 35 32 32 35 33 29 25 23 21 17 25 27
44 45 47 48 47 45 45 46 44 44 44 44 42 40 39 39 39 38 38 41 43 41 39 40 39 40 42 43 44 43 43 43 39 37 37 35 34 32 29 28 26 24 29
53 53 51 51 54 54 52 51 53 50 47 47 48 46 45 43 41 40 41 41 41 44 45 43 45 46 48 48 53 49 48 47 47 45 43 42 38 38 37 35 34 32 29
60 60 56 54 55 57 58 56 56 56 54 50 48 51 51 50 48 46 46 44 39 41 46 50 51 52 53 53 55 54 54 54 52 51 52 51 48 45 43 44 42 39 39
60 61 55 56 59 59 58 59 61 60 60 57 54 53 52 53 53 53 53 48 44 45 49 53 56 56 59 58 57 58 57 59 57 58 59 59 57 56 54 50 50 49 47
69 71 66 57 58 62 59 59 63 65 65 63 61 59 57 53 53 57 56 54 49 50 54 57 60 61 61 62 62 64 64 65 65 67 67 67 64 64 62 59 57 58 56
56 60 77 73 60 58 65 65 64 64 63 65 63 62 59 57 57 58 59 60 56 52 55 56 58 64 67 64 67 72 72 73 72 73 70 71 70 69 67 66 65 63 61
71 61 57 70 72 67 64 68 67 67 66 63 60 59 60 62 59 62 61 63 64 63 66 69 68 70 71 66 70 68 62 62 74 69 58 56 58 60 64 66 69 70 70
56 50 49 55 62 64 56 50 53 58 62 62 64 60 59 56 53 53 54 56 64 72 72 70 73 75 76 73 68 69 31 33 45 55 51 52 53 52 49 46 46 50 56
50 46 43 49 54 54 45 44 44 47 52 50 57 57 56 56 54 54 52 51 51 55 63 70 72 72 71 75 77 79 81 77 53 54 61 54 53 57 54 52 50 52 53
24 25 27 32 36 40 42 42 41 40 40 40 43 47 48 49 50 50 51 51 53 55 56 57 61 66 68 70 74 82 86 85 82 80 66 70 79 81 79 75 72 71 69
31 26 17 5 7 12 16 21 21 23 26 31 32 35 37 40 42 45 48 48 51 50 53 53 56 60 65 68 68 71 81 73 70 76 82 92 96 96 92 84 77 73 71
Wind_Direction_850mb
174 166 164 173 173 174 171 16 20 105 143 131 155 154 166 164 161 115 116 130 120 113 112 116 114 122 108 111 112 108 104 108 84 51 55 56 64 356 339 360 40 63 75
181 169 163 174 184 188 216 277 299 180 157 136 145 163 176 179 184 158 143 121 121 114 112 113 117 116 110 100 116 125 117 113 73 21 25 21 354 335 348 57 68 74 80
178 174 167 176 191 226 242 251 226 192 178 164 164 149 164 183 180 150 137 130 123 110 101 109 118 124 111 96 109 116 120 100 358 338 350 357 3 8 88 83 80 81 84
176 181 178 183 206 239 259 250 218 192 193 152 127 142 153 158 152 148 147 129 130 124 126 134 123 137 125 108 115 113 71 335 331 343 347 349 352 319 99 96 93 101 91
174 180 188 204 222 245 255 254 227 195 174 147 171 169 173 164 130 155 147 143 135 125 126 143 134 137 126 117 134 153 219 293 317 325 341 346 356 70 106 115 107 99 101
178 183 197 214 227 247 259 254 247 187 175 154 183 148 169 219 186 156 164 162 158 142 136 146 142 114 125 137 152 204 235 288 319 340 354 357 100 91 94 88 117 104 111
187 195 204 216 231 246 258 260 265 194 190 195 169 170 182 211 205 187 198 164 169 179 129 124 131 141 144 156 159 205 271 310 331 349 353 10 17 106 99 112 114 108 118
202 208 215 228 239 251 251 266 263 215 197 191 181 172 182 206 231 225 197 188 189 191 177 152 158 161 167 182 202 242 276 308 342 1 3 7 357 114 125 159 143 133 137
204 216 232 238 242 256 260 261 258 243 212 188 201 180 206 223 226 212 200 219 213 206 216 205 216 229 223 218 226 247 264 296 332 343 356 360 360 341 240 212 174 175 161
214 227 232 240 248 250 256 268 261 250 240 214 224 207 192 210 220 230 221 220 215 222 231 241 242 245 253 252 249 254 265 283 299 317 338 340 352 286 246 217 256 240 231
229 235 236 240 244 251 255 254 257 256 250 246 244 239 243 235 234 233 236 248 231 244 230 230 246 256 259 263 263 260 264 275 286 292 307 320 339 321 267 275 283 260 257
244 248 250 250 247 253 257 251 254 255 255 255 255 253 251 250 253 254 252 243 238 235 248 232 235 248 259 265 269 267 269 275 276 282 287 296 309 318 264 279 294 291 272
273 264 261 260 260 260 258 254 253 257 260 257 257 260 260 256 259 256 254 252 248 245 244 246 246 252 261 264 267 267 269 276 278 276 280 282 291 297 263 263 276 288 278
277 276 272 268 268 267 264 251 252 255 259 259 260 261 262 262 263 266 264 261 257 254 259 264 254 252 257 263 267 268 271 274 279 276 275 276 277 282 279 258 253 271 281
279 281 277 271 270 269 264 261 256 256 258 261 261 260 261 263 265 266 269 269 266 263 262 261 261 256 257 261 265 268 268 271 273 273 272 272 270 273 273 270 251 254 263
290 284 281 274 270 267 266 263 262 261 261 258 259 261 263 264 264 265 267 270 270 268 268 265 264 262 262 262 262 265 269 270 272 273 275 269 264 266 267 265 261 248 250
297 286 276 274 272 268 268 266 264 264 263 261 259 260 259 262 266 269 270 270 272 272 269 266 263 266 267 267 268 266 268 271 274 275 273 271 265 261 264 265 262 258 247
294 285 277 272 269 268 268 268 267 266 266 265 264 259 258 260 263 266 269 271 275 274 272 270 270 270 270 272 273 273 272 271 271 272 272 270 268 266 263 262 262 259 256
285 287 275 271 269 269 268 268 267 267 266 268 265 264 261 259 260 264 268 272 275 274 272 272 271 271 274 275 277 277 275 273 273 271 268 268 268 268 265 261 260 261 259
280 277 273 274 270 267 266 265 264 264 265 264 265 265 265 264 266 263 264 269 271 277 275 272 273 275 276 279 280 278 277 276 274 271 271 270 269 268 267 264 260 258 258
289 279 262 264 269 276 263 260 259 262 266 268 270 272 272 272 269 267 268 267 263 265 274 274 273 273 274 276 278 280 281 279 276 275 275 274 271 269 268 267 263 260 258
293 288 270 259 263 269 271 260 261 264 266 271 275 277 276 273 272 272 272 272 271 270 271 271 270 271 272 275 274 276 279 283 285 286 283 276 274 270 268 265 264 262 262
292 284 263 257 258 261 269 268 266 264 265 268 272 275 278 283 286 285 283 281 278 275 273 273 273 272 273 274 274 264 254 268 287 287 285 280 276 272 272 270 267 265 264
290 276 271 268 263 256 257 261 265 269 269 274 275 276 276 278 283 286 288 287 285 284 283 281 280 278 279 275 275 270 270 267 264 281 282 278 274 273 272 268 265 265 268
320 302 283 265 257 250 255 259 259 260 269 278 280 284 285 286 288 288 287 288 285 283 283 282 283 284 283 281 278 277 277 273 267 265 275 276 279 277 278 277 277 274 272
69 70 66 69 213 234 246 253 258 267 275 278 279 284 287 289 294 295 295 293 293 290 288 289 287 283 282 281 280 278 275 270 268 266 265 273 276 280 281 279 276 274 275